[[{"header":{"parameterUnit":"m.s-1","parameterCategory":1,"la1":30.2991,"la2":30.254,"lo1":-89.0895,"lo2":-89.0444,"dy":0.0017,"dx":0.0017,"nx":28,"ny":28,"refTime":"2024-12-07T09:00:00:Z","depth":0,"parameterNumber":2,"parameterNumberName":"U-component_of_WINDS"},"data":[0,0,0,0,0,0,0,0,0,0,0,0,0,0,0,0,0,0,0,0,0,0,0,0,0,0,0,0,0,0,0,0,0,0,0,0,0,0,0,0,0,0,0,0,0,0,0,0,0,0,0,0,0,0,0,0,0,0,0.8306,0.8306,0,0.8343,0.8343,0.8344,0.834,0.8339,0.8339,0.8338,0.8378,0.8379,0.8381,0,0,0,0,0,0,0,0,0,0,0,0,0,0.8232,0.8233,0.8306,0.8306,0.8307,0.8343,0.8343,0.8344,0.834,0.8339,0.8338,0.8338,0.8377,0.8379,0.8381,0,0,0,0,0,0,0,0,0,0,0,0,0,0.8266,0.8234,0.8306,0.8309,0.831,0.8343,0.8343,0.8344,0.834,0.8339,0.8338,0.8337,0.8377,0.8379,0.8381,0.8414,0,0,0.8389,0.839,0,0,0,0,0,0,0,0,0.8264,0.8269,0.8308,0.8309,0.831,0.8336,0.8332,0.8368,0.834,0.8329,0.8338,0.8337,0.8365,0.8368,0.8377,0.8416,0.8418,0.8389,0.839,0.8392,0.8392,0,0,0,0,0,0,0,0.8262,0.8267,0.832,0.8309,0.8309,0.8309,0.8313,0.8339,0.8351,0.8329,0.8329,0.8334,0.8365,0.8375,0.8378,0.8418,0.8389,0.8391,0.8393,0.8394,0.8486,0.8487,0,0,0,0,0,0,0.8258,0.8265,0.8319,0.8322,0.8284,0.8311,0.8315,0.8328,0.8351,0.8353,0.8334,0.8333,0.8371,0.8375,0.8379,0.8419,0.8392,0.8394,0.8395,0.8485,0.8486,0.8487,0,0,0,0,0,0,0.8257,0.8263,0.8318,0.8293,0.83,0.8313,0.8328,0.8329,0.8339,0.8355,0.8357,0.8342,0.837,0.8376,0.8405,0.8421,0.8395,0.8397,0.8484,0.8486,0.8487,0.8499,0,0,0,0,0,0,0.8255,0.8263,0.8275,0.8294,0.8301,0.8343,0.8329,0.8331,0.8343,0.8342,0.8362,0.8365,0.837,0.8402,0.8408,0.8423,0.8399,0.8483,0.8485,0.8486,0.8498,0.8501,0.8504,0,0,0,0,0,0.8252,0.8277,0.8276,0.8282,0.8317,0.8344,0.8348,0.8354,0.8344,0.8357,0.8367,0.8364,0.8418,0.8405,0.8412,0.8428,0.8482,0.8484,0.8486,0.8496,0.85,0.8504,0,0,0,0,0,0,0.8261,0.828,0.8278,0.831,0.8325,0.8343,0.8359,0.8358,0.8376,0.8375,0.8381,0.8385,0.8415,0.8425,0.841,0.8461,0.8449,0.8452,0.8454,0.8458,0.8461,0.8458,0.8401,0,0,0,0,0,0.8266,0.8286,0.8302,0.8329,0.8336,0.8346,0.8358,0.8361,0.8377,0.8383,0.8395,0.8412,0.8432,0.8445,0.8465,0.8499,0.8503,0.8513,0.8517,0.8519,0.8522,0.8541,0.8545,0.8495,0.8495,0.8495,0,0,0.8278,0.8291,0.8303,0.8331,0.8343,0.8363,0.8352,0.8374,0.8389,0.8387,0.8415,0.8425,0.8443,0.8475,0.8489,0.8484,0.8537,0.8522,0.8524,0.8526,0.8544,0.8548,0.8553,0.8496,0.8496,0.8496,0,0,0.831,0.8322,0.8345,0.8358,0.8376,0.8382,0.8388,0.8406,0.8412,0.844,0.8439,0.8457,0.8492,0.8506,0.8517,0.8554,0.8552,0.856,0.8577,0.8594,0.8598,0.8602,0.8615,0.862,0.8563,0.8563,0.8563,0,0.8323,0.8353,0.8358,0.838,0.8392,0.839,0.8414,0.8426,0.845,0.8458,0.8452,0.8495,0.8508,0.8542,0.8551,0.856,0.8567,0.8558,0.8597,0.8601,0.8604,0.8617,0.8622,0.8564,0.8564,0.8564,0.8564,0,0.8368,0.8389,0.8406,0.8428,0.8442,0.8466,0.8474,0.8487,0.8489,0.8496,0.8525,0.854,0.8562,0.8571,0.8572,0.8606,0.8601,0.8596,0.8584,0.861,0.8622,0.8627,0.8565,0.8565,0.8564,0.8564,0,0,0.8407,0.8431,0.8437,0.8447,0.8467,0.8484,0.8507,0.8528,0.854,0.8556,0.8576,0.8605,0.86,0.8613,0.8616,0.8632,0.866,0.8625,0.8625,0.8631,0.8697,0.8701,0.8707,0.8659,0.866,0.866,0.8696,0,0.8441,0.8481,0.8486,0.8522,0.8541,0.854,0.856,0.8574,0.8582,0.86,0.8608,0.8629,0.8621,0.8628,0.8644,0.8653,0.8674,0.8651,0.8677,0.8678,0.8673,0.8713,0.8718,0.875,0.8701,0.8701,0.8702,0,0.8486,0.8503,0.8541,0.8558,0.8566,0.8584,0.8604,0.8621,0.8638,0.8642,0.8656,0.8657,0.8681,0.8668,0.8701,0.8685,0.8696,0.8703,0.8704,0.8707,0.8692,0.8717,0.8761,0.8766,0.8709,0.8709,0.8708,0,0.851,0.8543,0.857,0.8579,0.8599,0.8612,0.8621,0.8636,0.8649,0.8666,0.8674,0.8695,0.8706,0.8722,0.8728,0.8718,0.8761,0.8748,0.8766,0.8766,0.8775,0.8775,0.8821,0.8782,0.8782,0.8782,0.8782,0,0.8548,0.8571,0.8581,0.8598,0.8624,0.8629,0.8654,0.8663,0.8677,0.8695,0.8695,0.8712,0.872,0.8739,0.8744,0.8771,0.8776,0.878,0.8781,0.878,0.878,0.8788,0.8786,0.8783,0.8783,0.8783,0.8783,0,0.8579,0.8587,0.8616,0.8633,0.8638,0.8656,0.8671,0.8687,0.8694,0.8717,0.8723,0.8734,0.8756,0.8764,0.8791,0.8795,0.8825,0.8825,0.882,0.882,0.8837,0.8835,0.8891,0.8898,0.8854,0.8855,0.8855,0,0.8603,0.8621,0.8639,0.8651,0.8661,0.868,0.8693,0.8699,0.8712,0.8732,0.8745,0.8767,0.8785,0.882,0.8831,0.8851,0.8851,0.8869,0.8854,0.8852,0.8851,0.885,0.8852,0.8872,0.8872,0.8872,0.8873,0,0.8643,0.8646,0.8664,0.8684,0.8699,0.8715,0.873,0.874,0.8748,0.8763,0.8785,0.8798,0.8825,0.8847,0.8868,0.8878,0.8877,0.8877,0.8882,0.8881,0.8878,0.888,0.8827,0.8876,0.8876,0.8876,0.8875,0.8875,0.8672,0.8687,0.8703,0.8723,0.8735,0.8749,0.8765,0.8774,0.8792,0.8814,0.8817,0.884,0.8856,0.8884,0.8895,0.8914,0.8909,0.8916,0.8918,0.892,0.8921,0.8875,0.8918,0.8918,0.8918,0.8917,0.8917,0,0.8712,0.8722,0.874,0.8761,0.8777,0.8775,0.8791,0.8805,0.8826,0.884,0.8857,0.8883,0.8904,0.8916,0.8937,0.895,0.895,0.8955,0.8954,0.8956,0.8924,0.8918,0.8955,0.8954,0.8954,0.8954,0.8954,0.8954,0.8735,0.8761,0.8766,0.8798,0.8808,0.8831,0.8841,0.8854,0.8866,0.8894,0.8911,0.8919,0.8932,0.8954,0.8973,0.8976,0.8984,0.899,0.8993,0.8962,0.8959,0.8955,0.8949,0.8991,0.8992,0.9023,0.9023,0.9024]},{"header":{"parameterUnit":"m.s-1","parameterCategory":1,"la1":30.2991,"la2":30.254,"lo1":-89.0895,"lo2":-89.0444,"dy":0.0017,"dx":0.0017,"nx":28,"ny":28,"refTime":"2024-12-07T09:00:00:Z","depth":0,"parameterNumber":3,"parameterNumberName":"V-component_of_WINDS"},"data":[0,0,0,0,0,0,0,0,0,0,0,0,0,0,0,0,0,0,0,0,0,0,0,0,0,0,0,0,0,0,0,0,0,0,0,0,0,0,0,0,0,0,0,0,0,0,0,0,0,0,0,0,0,0,0,0,0,0,4.2148,4.2148,0,4.2175,4.2176,4.2176,4.214,4.2139,4.2138,4.2137,4.2161,4.2163,4.2165,0,0,0,0,0,0,0,0,0,0,0,0,0,4.206,4.2062,4.2148,4.2148,4.2148,4.2175,4.2176,4.2176,4.2141,4.2139,4.2138,4.2136,4.2161,4.2163,4.2165,0,0,0,0,0,0,0,0,0,0,0,0,0,4.2094,4.2063,4.2148,4.2134,4.2133,4.2175,4.2176,4.2176,4.2141,4.2139,4.2137,4.2135,4.216,4.2163,4.2165,4.2221,0,0,4.2174,4.2175,0,0,0,0,0,0,0,0,4.2092,4.2097,4.2136,4.2135,4.2134,4.2153,4.2154,4.2191,4.2141,4.2138,4.2137,4.2134,4.216,4.2162,4.2172,4.2222,4.2223,4.2174,4.2176,4.2177,4.2178,0,0,0,0,0,0,0,4.209,4.2096,4.2158,4.2136,4.2135,4.2125,4.2128,4.2161,4.2159,4.2138,4.2136,4.2139,4.2159,4.2169,4.2172,4.2223,4.2174,4.2176,4.2178,4.2179,4.232,4.2322,0,0,0,0,0,0,4.209,4.2094,4.2158,4.2159,4.2108,4.2128,4.2131,4.2148,4.2159,4.2158,4.2141,4.2138,4.2165,4.2169,4.2173,4.2238,4.2177,4.2179,4.2181,4.2318,4.232,4.2322,0,0,0,0,0,0,4.2088,4.2096,4.2156,4.2126,4.2133,4.2132,4.2151,4.215,4.216,4.2161,4.216,4.2152,4.2164,4.2169,4.2209,4.2239,4.2181,4.2183,4.2315,4.2319,4.2321,4.2371,0,0,0,0,0,0,4.2086,4.2095,4.2118,4.2127,4.2135,4.2194,4.2153,4.2152,4.2166,4.2161,4.2171,4.2171,4.2163,4.2205,4.2212,4.2242,4.2185,4.2313,4.2317,4.232,4.2366,4.2375,4.2382,0,0,0,0,0,4.2083,4.213,4.2119,4.2127,4.2163,4.2196,4.22,4.2191,4.2168,4.219,4.219,4.217,4.2234,4.221,4.2217,4.2248,4.2311,4.2316,4.232,4.2363,4.2373,4.2382,0,0,0,0,0,0,4.2123,4.2131,4.2119,4.2171,4.2183,4.219,4.2217,4.2203,4.2221,4.2216,4.2202,4.2205,4.2248,4.2252,4.2224,4.2302,4.2268,4.2275,4.2298,4.2308,4.2316,4.2315,4.2188,0,0,0,0,0,4.2138,4.2165,4.217,4.2215,4.2222,4.2219,4.2233,4.2224,4.2236,4.2241,4.2244,4.2255,4.2278,4.2293,4.2314,4.2366,4.2367,4.239,4.2399,4.2405,4.2411,4.2439,4.2449,4.2338,4.2338,4.2338,0,0,4.2169,4.2176,4.2195,4.2223,4.2232,4.226,4.2223,4.2254,4.2274,4.2245,4.2284,4.2287,4.2298,4.2345,4.2366,4.2349,4.2442,4.2411,4.2416,4.2419,4.2445,4.2456,4.2465,4.2341,4.234,4.234,0,0,4.224,4.2249,4.2287,4.2297,4.2311,4.2308,4.2317,4.2326,4.2327,4.2366,4.2345,4.2367,4.2407,4.2416,4.2425,4.2499,4.2482,4.2505,4.2548,4.2575,4.2584,4.2592,4.2619,4.2628,4.2511,4.2511,4.2511,0,4.2277,4.2319,4.2308,4.2341,4.2354,4.233,4.2368,4.2377,4.2397,4.2406,4.2387,4.2435,4.2441,4.249,4.2508,4.2516,4.2526,4.2505,4.2584,4.2592,4.2599,4.2624,4.2634,4.2514,4.2514,4.2514,4.2513,0,4.2363,4.2393,4.2422,4.2443,4.2459,4.2494,4.2488,4.2505,4.2494,4.2493,4.2533,4.2539,4.256,4.2571,4.2561,4.2618,4.2607,4.2586,4.2553,4.2613,4.2636,4.2646,4.2518,4.2517,4.2516,4.2516,0,0,4.2462,4.2476,4.2487,4.2497,4.2509,4.2531,4.2564,4.2587,4.2602,4.2615,4.2643,4.2676,4.2656,4.2667,4.2658,4.2682,4.274,4.2658,4.2658,4.2674,4.2803,4.282,4.2832,4.2728,4.2729,4.2731,4.2803,0,4.2534,4.2594,4.2585,4.2642,4.2669,4.2645,4.2674,4.2684,4.2683,4.2705,4.2703,4.2727,4.27,4.2706,4.2729,4.2728,4.2766,4.2722,4.2753,4.2754,4.2753,4.2844,4.2862,4.2929,4.2812,4.2813,4.2815,0,4.2627,4.2645,4.2705,4.2714,4.2725,4.2751,4.277,4.2791,4.2802,4.2799,4.2812,4.2797,4.2829,4.2794,4.2838,4.2809,4.282,4.2821,4.2824,4.2827,4.2789,4.2851,4.2951,4.2961,4.2829,4.2828,4.2827,0,4.2694,4.2733,4.2775,4.2783,4.2793,4.2813,4.2817,4.2826,4.284,4.2856,4.2864,4.2883,4.2894,4.2909,4.29,4.2875,4.2945,4.2909,4.2944,4.2944,4.2961,4.296,4.3065,4.2966,4.2966,4.2966,4.2966,0,4.2776,4.2814,4.2805,4.2831,4.2872,4.286,4.29,4.2902,4.291,4.2935,4.2914,4.2937,4.2923,4.2945,4.2937,4.2975,4.2979,4.2978,4.2976,4.2981,4.2981,4.2989,4.2985,4.2968,4.2968,4.2967,4.2967,0,4.2859,4.2855,4.2898,4.2905,4.2907,4.2937,4.2942,4.2965,4.2962,4.2993,4.3,4.2995,4.302,4.3011,4.3037,4.3032,4.308,4.3071,4.3077,4.3076,4.3111,4.3108,4.3226,4.3241,4.3131,4.3132,4.3133,0,4.2913,4.2942,4.2951,4.2967,4.2974,4.2999,4.3013,4.3001,4.3016,4.303,4.3051,4.3074,4.3092,4.3132,4.313,4.3149,4.3141,4.3181,4.3144,4.3148,4.3143,4.3142,4.3145,4.3189,4.319,4.3191,4.3192,0,4.3009,4.3005,4.3027,4.3048,4.3065,4.3081,4.3094,4.3107,4.3096,4.3114,4.3139,4.3153,4.318,4.3203,4.322,4.3223,4.3206,4.3204,4.3213,4.3219,4.3222,4.3222,4.3099,4.3201,4.32,4.32,4.3199,4.3199,4.308,4.3104,4.3115,4.3139,4.3148,4.3161,4.3184,4.3183,4.3205,4.3226,4.3217,4.3246,4.3255,4.3277,4.3283,4.3304,4.3289,4.3302,4.3306,4.331,4.3315,4.3217,4.3307,4.3307,4.3307,4.3306,4.3306,0,4.3175,4.3181,4.3204,4.3224,4.3243,4.3225,4.3238,4.3255,4.3282,4.3291,4.3309,4.3338,4.336,4.3359,4.3379,4.3397,4.3389,4.3402,4.3402,4.3403,4.3327,4.3317,4.3408,4.3408,4.3408,4.3408,4.3408,4.3408,4.3228,4.3268,4.3266,4.331,4.3314,4.3344,4.3353,4.3364,4.3372,4.3406,4.3424,4.3424,4.3429,4.3449,4.3468,4.3467,4.3476,4.3493,4.3489,4.3418,4.3408,4.3399,4.339,4.3494,4.3494,4.3563,4.3564,4.3564]}]]